Location: Colossi of Memnon
(25.7167°N, 32.6167°E)
Time: 19:18:51
(UTC+00:00)

N. Korean satellite - Pass Details

Date: 20 September 2021
Orbit: 450 x 495 km, 97.3° (Epoch: 16 October)

Event Time Altitude Azimuth Distance (km) Brightness Sun altitude
Rises 02:47:38 0° 14° (NNE) 2,511 10.5 -12.0°
Reaches altitude 10° 02:49:42 10° 18° (NNE) 1,640 9.6 -11.5°
Maximum altitude 02:53:12 65° 100° (E) 529 7.0 -10.7°
Drops below altitude 10° 02:56:44 10° 183° (S) 1,658 9.2 -10.0°
Sets 02:58:49 0° 186° (S) 2,542 10.1 -9.5°
